OAS5178 SPZO-SPQU

Flight info

Callsign OAS5178
Flight time 0h 46m
Altitude 26000
Route TAUJA3 LITOT UV15 KOLKA KOLK3A
Aircraft B350/L-SBGRW/S

Departure

Time 2026-05-07 21:59
Airport Alejandro Velasco Astete International Airport (SPZO)

Arrival

Time 2026-05-07 22:46
Airport Rodríguez Ballón International Airport (SPQU)
Time Latitude Longitude Altitude Speed Heading
2026-05-07 21:45 -13.53694 -71.94515 10813 ft 0 kts 274°
2026-05-07 21:54 -13.53690 -71.94519 10813 ft 3 kts 351°
2026-05-07 21:54 -13.53641 -71.94523 10813 ft 3 kts 293°
2026-05-07 21:54 -13.53639 -71.94558 10814 ft 5 kts 273°
2026-05-07 21:54 -13.53637 -71.94593 10816 ft 5 kts 276°
2026-05-07 21:55 -13.53627 -71.94689 10822 ft 18 kts 276°
2026-05-07 21:55 -13.53616 -71.94799 10829 ft 13 kts 274°
2026-05-07 21:55 -13.53610 -71.94870 10834 ft 7 kts 275°
2026-05-07 21:55 -13.53606 -71.94908 10837 ft 4 kts 277°
2026-05-07 21:56 -13.53602 -71.94945 10840 ft 8 kts 276°
2026-05-07 21:56 -13.53595 -71.95014 10846 ft 10 kts 276°
2026-05-07 21:56 -13.53588 -71.95083 10851 ft 13 kts 276°
2026-05-07 21:56 -13.53577 -71.95190 10858 ft 14 kts 277°
2026-05-07 21:57 -13.53567 -71.95287 10860 ft 14 kts 276°
2026-05-07 21:57 -13.53556 -71.95386 10863 ft 14 kts 274°
2026-05-07 21:57 -13.53532 -71.95475 10861 ft 11 kts 338°
2026-05-07 21:57 -13.53464 -71.95448 10863 ft 11 kts 37°
2026-05-07 21:58 -13.53418 -71.95435 10862 ft 0 kts 41°
2026-05-07 21:58 -13.53415 -71.95416 10865 ft 1 kts 92°
2026-05-07 21:58 -13.53421 -71.95361 10861 ft 30 kts 97°
2026-05-07 21:58 -13.53464 -71.94935 10839 ft 90 kts 96°
2026-05-07 21:59 -13.53551 -71.94104 10808 ft 140 kts 96°
2026-05-07 21:59 -13.53661 -71.92976 10764 ft 175 kts 98°
2026-05-07 21:59 -13.53835 -71.91645 11017 ft 196 kts 98°
2026-05-07 21:59 -13.54017 -71.90218 11591 ft 206 kts 92°
2026-05-07 22:00 -13.54274 -71.88758 12349 ft 210 kts 106°
2026-05-07 22:00 -13.54861 -71.87358 12757 ft 216 kts 114°
2026-05-07 22:00 -13.55479 -71.85941 13056 ft 220 kts 107°
2026-05-07 22:00 -13.55960 -71.84429 13517 ft 224 kts 106°
2026-05-07 22:01 -13.56487 -71.82915 14025 ft 226 kts 108°
2026-05-07 22:01 -13.57060 -71.81397 14457 ft 229 kts 111°
2026-05-07 22:01 -13.57674 -71.79873 14887 ft 231 kts 111°
2026-05-07 22:01 -13.58281 -71.78345 15330 ft 231 kts 111°
2026-05-07 22:02 -13.58881 -71.76816 15778 ft 230 kts 112°
2026-05-07 22:02 -13.59516 -71.75311 16238 ft 229 kts 117°
2026-05-07 22:02 -13.60323 -71.73904 16699 ft 228 kts 124°
2026-05-07 22:02 -13.61283 -71.72614 17170 ft 227 kts 131°
2026-05-07 22:03 -13.62366 -71.71441 17643 ft 226 kts 135°
2026-05-07 22:03 -13.63450 -71.70279 18127 ft 224 kts 134°
2026-05-07 22:03 -13.64518 -71.69122 18584 ft 222 kts 134°
2026-05-07 22:03 -13.65581 -71.67977 19008 ft 220 kts 134°
2026-05-07 22:04 -13.66635 -71.66844 19434 ft 218 kts 135°
2026-05-07 22:04 -13.67683 -71.65720 19863 ft 217 kts 135°
2026-05-07 22:04 -13.68723 -71.64599 20280 ft 216 kts 134°
2026-05-07 22:04 -13.69777 -71.63502 20702 ft 214 kts 140°
2026-05-07 22:05 -13.70958 -71.62585 21134 ft 212 kts 148°
2026-05-07 22:05 -13.72242 -71.61855 21574 ft 210 kts 156°
2026-05-07 22:05 -13.73603 -71.61329 22033 ft 208 kts 164°
2026-05-07 22:05 -13.75010 -71.61012 22500 ft 206 kts 172°
2026-05-07 22:06 -13.76426 -71.60901 22974 ft 203 kts 177°
2026-05-07 22:06 -13.77829 -71.60836 23419 ft 202 kts 176°
2026-05-07 22:06 -13.79242 -71.60758 23730 ft 204 kts 176°
2026-05-07 22:06 -13.80657 -71.60688 24004 ft 208 kts 177°
2026-05-07 22:07 -13.82135 -71.60618 24286 ft 211 kts 177°
2026-05-07 22:07 -13.83586 -71.60548 24555 ft 212 kts 178°
2026-05-07 22:07 -13.85078 -71.60474 24857 ft 212 kts 178°
2026-05-07 22:07 -13.86557 -71.60449 25146 ft 214 kts 184°
2026-05-07 22:08 -13.88018 -71.60597 25439 ft 214 kts 190°
2026-05-07 22:08 -13.89494 -71.60920 25733 ft 214 kts 197°
2026-05-07 22:08 -13.90915 -71.61405 25967 ft 219 kts 203°
2026-05-07 22:08 -13.92376 -71.62005 25971 ft 234 kts 202°
2026-05-07 22:09 -13.93915 -71.62611 25981 ft 246 kts 202°
2026-05-07 22:09 -13.95552 -71.63256 25972 ft 257 kts 202°
2026-05-07 22:09 -13.97243 -71.63937 25971 ft 265 kts 202°
2026-05-07 22:09 -13.98988 -71.64638 25972 ft 273 kts 202°
2026-05-07 22:10 -14.00775 -71.65351 25964 ft 279 kts 202°
2026-05-07 22:10 -14.02622 -71.66016 25963 ft 284 kts 197°
2026-05-07 22:10 -14.04553 -71.66524 25961 ft 288 kts 192°
2026-05-07 22:10 -14.06537 -71.66909 25956 ft 292 kts 192°
2026-05-07 22:11 -14.08543 -71.67307 25954 ft 295 kts 192°
2026-05-07 22:11 -14.10566 -71.67716 25959 ft 297 kts 192°
2026-05-07 22:11 -14.12607 -71.68123 25959 ft 300 kts 192°
2026-05-07 22:11 -14.14663 -71.68530 25957 ft 302 kts 192°
2026-05-07 22:12 -14.16730 -71.68941 25958 ft 303 kts 192°
2026-05-07 22:12 -14.18803 -71.69356 25958 ft 304 kts 192°
2026-05-07 22:12 -14.20880 -71.69772 25961 ft 304 kts 192°
2026-05-07 22:12 -14.22959 -71.70186 25958 ft 305 kts 192°
2026-05-07 22:13 -14.25047 -71.70602 25963 ft 305 kts 192°
2026-05-07 22:13 -14.27135 -71.71021 25963 ft 306 kts 192°
2026-05-07 22:13 -14.29222 -71.71437 25963 ft 306 kts 192°
2026-05-07 22:13 -14.31312 -71.71854 25971 ft 306 kts 192°
2026-05-07 22:14 -14.33408 -71.72273 25971 ft 307 kts 192°
2026-05-07 22:14 -14.35507 -71.72693 25967 ft 307 kts 192°
2026-05-07 22:14 -14.37610 -71.73114 25976 ft 308 kts 192°
2026-05-07 22:14 -14.39710 -71.73533 25979 ft 308 kts 192°
2026-05-07 22:15 -14.41816 -71.73953 25981 ft 308 kts 192°
2026-05-07 22:15 -14.43924 -71.74376 25984 ft 308 kts 192°
2026-05-07 22:15 -14.46028 -71.74797 25987 ft 309 kts 192°
2026-05-07 22:15 -14.48138 -71.75219 25988 ft 309 kts 192°
2026-05-07 22:16 -14.49534 -71.75499 25991 ft 309 kts 192°
2026-05-07 22:16 -14.52358 -71.76063 26000 ft 309 kts 192°
2026-05-07 22:16 -14.54468 -71.76487 26001 ft 309 kts 192°
2026-05-07 22:16 -14.55865 -71.76766 26004 ft 309 kts 192°
2026-05-07 22:17 -14.58661 -71.77325 26011 ft 309 kts 192°
2026-05-07 22:17 -14.60774 -71.77749 26013 ft 309 kts 192°
2026-05-07 22:17 -14.62888 -71.78173 26013 ft 309 kts 192°
2026-05-07 22:17 -14.64314 -71.78459 26021 ft 310 kts 192°
2026-05-07 22:18 -14.67118 -71.79021 26024 ft 310 kts 192°
2026-05-07 22:18 -14.70635 -71.79726 26033 ft 310 kts 192°
2026-05-07 22:18 -14.72752 -71.80150 26041 ft 310 kts 192°
2026-05-07 22:19 -14.74868 -71.80575 26043 ft 310 kts 192°
2026-05-07 22:19 -14.76985 -71.81000 26051 ft 310 kts 192°
2026-05-07 22:19 -14.79102 -71.81425 26057 ft 310 kts 192°
2026-05-07 22:19 -14.81217 -71.81849 26061 ft 310 kts 192°
2026-05-07 22:20 -14.83332 -71.82273 26059 ft 310 kts 192°
2026-05-07 22:20 -14.85443 -71.82697 26065 ft 309 kts 192°
2026-05-07 22:20 -14.87555 -71.83121 26071 ft 309 kts 192°
2026-05-07 22:20 -14.89670 -71.83546 26077 ft 309 kts 192°
2026-05-07 22:21 -14.91782 -71.83970 26076 ft 309 kts 192°
2026-05-07 22:21 -14.93896 -71.84394 26084 ft 309 kts 192°
2026-05-07 22:21 -14.96010 -71.84819 26091 ft 310 kts 193°
2026-05-07 22:21 -14.98124 -71.85245 26098 ft 310 kts 193°
2026-05-07 22:22 -15.00241 -71.85669 26103 ft 310 kts 193°
2026-05-07 22:22 -15.02356 -71.86094 26107 ft 309 kts 193°
2026-05-07 22:22 -15.04467 -71.86519 26110 ft 309 kts 193°
2026-05-07 22:22 -15.06583 -71.86944 26116 ft 309 kts 193°
2026-05-07 22:23 -15.08694 -71.87369 26124 ft 309 kts 193°
2026-05-07 22:23 -15.10805 -71.87794 26131 ft 309 kts 193°
2026-05-07 22:23 -15.12918 -71.88220 26137 ft 309 kts 193°
2026-05-07 22:23 -15.15033 -71.88645 26142 ft 309 kts 193°
2026-05-07 22:24 -15.17143 -71.89068 26148 ft 309 kts 193°
2026-05-07 22:24 -15.19253 -71.89494 26150 ft 309 kts 193°
2026-05-07 22:24 -15.21362 -71.89918 26156 ft 309 kts 193°
2026-05-07 22:24 -15.23469 -71.90345 26160 ft 309 kts 193°
2026-05-07 22:25 -15.25577 -71.90769 26161 ft 308 kts 193°
2026-05-07 22:25 -15.27682 -71.91191 26169 ft 309 kts 193°
2026-05-07 22:25 -15.29792 -71.91617 26172 ft 309 kts 193°
2026-05-07 22:25 -15.31904 -71.92044 26177 ft 309 kts 193°
2026-05-07 22:26 -15.34013 -71.92469 26179 ft 309 kts 193°
2026-05-07 22:26 -15.36121 -71.92893 26183 ft 309 kts 193°
2026-05-07 22:26 -15.38225 -71.93319 26187 ft 309 kts 193°
2026-05-07 22:26 -15.40338 -71.93747 26189 ft 309 kts 193°
2026-05-07 22:27 -15.42451 -71.94171 26190 ft 309 kts 193°
2026-05-07 22:27 -15.44563 -71.94598 26195 ft 310 kts 193°
2026-05-07 22:27 -15.46681 -71.95027 26202 ft 310 kts 193°
2026-05-07 22:27 -15.48797 -71.95452 26205 ft 310 kts 193°
2026-05-07 22:28 -15.50917 -71.95880 26203 ft 311 kts 193°
2026-05-07 22:28 -15.53039 -71.96309 26207 ft 311 kts 193°
2026-05-07 22:28 -15.55164 -71.96740 26213 ft 312 kts 193°
2026-05-07 22:28 -15.57295 -71.97169 26212 ft 311 kts 193°
2026-05-07 22:29 -15.59418 -71.97597 26212 ft 311 kts 193°
2026-05-07 22:29 -15.61510 -71.98021 26215 ft 311 kts 193°
2026-05-07 22:29 -15.63638 -71.98452 26218 ft 311 kts 193°
2026-05-07 22:29 -15.65755 -71.98879 26216 ft 310 kts 193°
2026-05-07 22:30 -15.67870 -71.99306 26222 ft 310 kts 193°
2026-05-07 22:30 -15.70001 -71.99673 26219 ft 310 kts 192°
2026-05-07 22:30 -15.72124 -72.00077 26216 ft 310 kts 193°
2026-05-07 22:30 -15.74247 -72.00492 26210 ft 311 kts 192°
2026-05-07 22:31 -15.76374 -72.00878 26211 ft 311 kts 192°
2026-05-07 22:31 -15.78506 -72.01260 26202 ft 310 kts 192°
2026-05-07 22:31 -15.80627 -72.01649 26208 ft 310 kts 192°
2026-05-07 22:31 -15.82752 -72.02042 26205 ft 310 kts 192°
2026-05-07 22:32 -15.84878 -72.02431 26200 ft 310 kts 192°
2026-05-07 22:32 -15.87006 -72.02821 26203 ft 311 kts 192°
2026-05-07 22:32 -15.89137 -72.03213 26193 ft 311 kts 192°
2026-05-07 22:32 -15.91271 -72.03604 26193 ft 311 kts 192°
2026-05-07 22:33 -15.93404 -72.03994 26191 ft 312 kts 192°
2026-05-07 22:33 -15.95541 -72.04386 26187 ft 312 kts 192°
2026-05-07 22:33 -15.97673 -72.04778 26181 ft 311 kts 192°
2026-05-07 22:33 -15.99790 -72.05228 26178 ft 310 kts 195°
2026-05-07 22:34 -16.01896 -72.05696 26176 ft 310 kts 193°
2026-05-07 22:34 -16.04013 -72.06122 26174 ft 310 kts 194°
2026-05-07 22:34 -16.06129 -72.06579 26172 ft 310 kts 195°
2026-05-07 22:34 -16.08237 -72.07051 26173 ft 311 kts 194°
2026-05-07 22:35 -16.10355 -72.07516 26163 ft 311 kts 194°
2026-05-07 22:35 -16.12476 -72.07975 26164 ft 311 kts 194°
2026-05-07 22:35 -16.14597 -72.08437 26153 ft 311 kts 194°
2026-05-07 22:35 -16.16717 -72.08902 26152 ft 311 kts 194°
2026-05-07 22:36 -16.18836 -72.09365 26147 ft 311 kts 194°
2026-05-07 22:36 -16.20952 -72.09827 26154 ft 311 kts 194°
2026-05-07 22:36 -16.23066 -72.10289 26142 ft 308 kts 194°
2026-05-07 22:36 -16.25099 -72.10730 25907 ft 291 kts 195°
2026-05-07 22:37 -16.27062 -72.11161 25430 ft 287 kts 195°
2026-05-07 22:37 -16.29003 -72.11587 24945 ft 283 kts 194°
2026-05-07 22:37 -16.30954 -72.11814 24411 ft 285 kts 179°
2026-05-07 22:37 -16.32886 -72.11341 23870 ft 289 kts 158°
2026-05-07 22:38 -16.34561 -72.10179 23267 ft 292 kts 137°
2026-05-07 22:38 -16.35760 -72.08472 22641 ft 294 kts 117°
2026-05-07 22:38 -16.36330 -72.06438 22032 ft 294 kts 96°
2026-05-07 22:38 -16.36198 -72.04327 21438 ft 293 kts 76°
2026-05-07 22:39 -16.35551 -72.02326 20851 ft 290 kts 69°
2026-05-07 22:39 -16.34904 -72.00350 20251 ft 288 kts 75°
2026-05-07 22:39 -16.34515 -71.98304 19644 ft 287 kts 83°
2026-05-07 22:39 -16.34291 -71.96464 19113 ft 286 kts 83°
2026-05-07 22:40 -16.33982 -71.94427 18524 ft 284 kts 80°
2026-05-07 22:40 -16.33618 -71.92414 17870 ft 281 kts 80°
2026-05-07 22:40 -16.33271 -71.90419 17222 ft 279 kts 81°
2026-05-07 22:40 -16.32945 -71.88436 16542 ft 277 kts 81°
2026-05-07 22:41 -16.32618 -71.86439 15712 ft 282 kts 83°
2026-05-07 22:41 -16.32555 -71.84399 14910 ft 283 kts 94°
2026-05-07 22:41 -16.32664 -71.82348 14121 ft 284 kts 95°
2026-05-07 22:41 -16.32777 -71.80291 13253 ft 285 kts 95°
2026-05-07 22:42 -16.32906 -71.78232 12398 ft 284 kts 96°
2026-05-07 22:42 -16.33060 -71.76190 11561 ft 283 kts 95°
2026-05-07 22:42 -16.33159 -71.74186 11131 ft 268 kts 93°
2026-05-07 22:42 -16.33237 -71.72307 10824 ft 252 kts 94°
2026-05-07 22:43 -16.33347 -71.70543 10532 ft 238 kts 94°
2026-05-07 22:43 -16.33431 -71.68873 10262 ft 225 kts 92°
2026-05-07 22:43 -16.33514 -71.67282 9978 ft 215 kts 94°
2026-05-07 22:43 -16.33599 -71.65764 9720 ft 206 kts 92°
2026-05-07 22:44 -16.33669 -71.64321 9463 ft 198 kts 94°
2026-05-07 22:44 -16.33747 -71.62967 9185 ft 169 kts 92°
2026-05-07 22:44 -16.33797 -71.61873 8954 ft 140 kts 94°
2026-05-07 22:44 -16.33852 -71.60940 8762 ft 119 kts 93°
2026-05-07 22:45 -16.33926 -71.60065 8546 ft 120 kts 91°
2026-05-07 22:45 -16.33962 -71.59169 8444 ft 130 kts 95°
2026-05-07 22:45 -16.33988 -71.58282 8302 ft 116 kts 94°
2026-05-07 22:45 -16.34035 -71.57550 8337 ft 86 kts 93°
2026-05-07 22:46 -16.34057 -71.57166 8362 ft 29 kts 94°
2026-05-07 22:46 -16.34069 -71.57066 8368 ft 3 kts 102°
2026-05-07 22:46 -16.34063 -71.57063 8368 ft 0 kts 314°
2026-05-07 22:46 -16.34056 -71.57162 8362 ft 23 kts 272°
2026-05-07 22:47 -16.34105 -71.57228 8357 ft 15 kts 147°
2026-05-07 22:47 -16.34181 -71.57155 8357 ft 15 kts 119°
2026-05-07 22:47 -16.34233 -71.57060 8354 ft 13 kts 121°
2026-05-07 22:47 -16.34289 -71.56956 8344 ft 19 kts 121°
2026-05-07 22:48 -16.34326 -71.56892 8344 ft 6 kts 120°
2026-05-07 22:48 -16.34341 -71.56854 8344 ft 6 kts 95°
2026-05-07 22:48 -16.34346 -71.56800 8341 ft 9 kts 94°
2026-05-07 22:48 -16.34350 -71.56727 8341 ft 11 kts 92°
2026-05-07 22:49 -16.34371 -71.56702 8342 ft 4 kts 217°
2026-05-07 22:49 -16.34395 -71.56721 8343 ft 5 kts 216°
2026-05-07 22:49 -16.34398 -71.56722 8343 ft 0 kts 216°